This demonstration page uses our WeatherBlox Daily Observations layout. Learn more.

Left ArrowRight Arrow

Hourly Observations for June 12, 2016

Temp ( °F °C ) Dew Point ( °F °C ) Humidity (%) Winds ( mph kmh ) Pressure ( in mb ) Visibility ( mi km ) Precip ( " mm )
12:51 am 00:51 Clear 74 23.3 58 14.4 57 57 ENE 3 6 29.85 1011 10 16 0.00 0.00
1:51 am 01:51 Clear 73 22.8 58 14.4 59 59 NE 6 9 29.85 1011 10 16 0.00 0.00
2:51 am 02:51 Clear 73 22.8 58 14.4 59 59 S 5 7 29.85 1011 10 16 0.00 0.00
3:51 am 03:51 Clear 69 20.6 58 14.4 68 68 Calm 29.86 1011 10 16 0.00 0.00
4:51 am 04:51 Clear 69 20.6 57 13.9 66 66 ESE 6 9 29.88 1012 10 16 0.00 0.00
5:51 am 05:51 Sunny 70 21.1 58 14.4 66 66 ESE 3 6 29.90 1013 10 16 0.00 0.00
6:51 am 06:51 Sunny 75 23.9 53 11.7 46 46 SE 6 9 29.92 1013 10 16 0.00 0.00
7:51 am 07:51 Sunny 79 26.1 54 12.2 42 42 SSE 5 7 29.93 1014 10 16 0.00 0.00
8:51 am 08:51 Sunny 82 27.8 55 12.8 40 40 WSW 5 7 29.92 1013 10 16 0.00 0.00
9:51 am 09:51 Sunny 86 30 53 11.7 32 32 Calm 29.92 1013 10 16 0.00 0.00
10:51 am 10:51 Sunny 90 32.2 47 8.3 23 23 W 5 7 29.91 1013 10 16 0.00 0.00
11:51 am 11:51 Sunny 93 33.9 38 3.3 14 14 S 6 9 29.89 1012 10 16 0.00 0.00
12:51 pm 12:51 Sunny 96 35.6 39 3.9 14 14 W 12 19 29.86 1011 10 16 0.00 0.00
1:51 pm 13:51 Sunny 97 36.1 35 1.7 11 11 VRB 6 9 29.85 1011 10 16 0.00 0.00
2:51 pm 14:51 Sunny 98 36.7 36 2.2 11 11 VRB 6 9 29.82 1010 10 16 0.00 0.00
3:51 pm 15:51 Sunny 98 36.7 34 1.1 11 11 WNW 9 15 29.80 1009 10 16 0.00 0.00
4:51 pm 16:51 Sunny 99 37.2 34 1.1 10 10 WNW 18 30 29.79 1009 10 16 0.00 0.00
5:51 pm 17:51 Sunny 97 36.1 37 2.8 12 12 W 14 22 29.79 1009 10 16 0.00 0.00
6:51 pm 18:51 Sunny 94 34.4 37 2.8 14 14 NW 14 22 29.79 1009 10 16 0.00 0.00
7:51 pm 19:51 Clear 91 32.8 33 0.6 13 13 WNW 16 26 29.80 1009 10 16 0.00 0.00
8:51 pm 20:51 Clear 89 31.7 33 0.6 14 14 NW 16 26 29.82 1010 10 16 0.00 0.00
9:51 pm 21:51 Clear 84 28.9 33 0.6 16 16 WNW 13 20 29.84 1011 10 16 0.00 0.00
10:51 pm 22:51 Clear 81 27.2 34 1.1 18 18 NW 12 19 29.85 1011 10 16 0.00 0.00
11:51 pm 23:51 Clear 79 26.1 34 1.1 20 20 NW 13 20 29.86 1011 10 16 0.00 0.00

Powered by AerisWeather